, AK

(GMT )
Aniak

Weather History for PANI - October, 2013

Change the Weather History Date:

Tuesday, October 1, 2013

  Actual Average Record
Temperature  
Mean Temperature 30 °F -  
Max Temperature 39 °F 42 °F 59 °F (2003)
Min Temperature 21 °F 30 °F 21 °F (1997)
Degree Days  
Heating Degree Days 35    
Moisture  
Dew Point 21 °F    
Average Humidity 68    
Maximum Humidity 93    
Minimum Humidity 44    
Precipitation  
Precipitation 0.00 in - - ()
Sea Level Pressure  
Sea Level Pressure 30.00 in    
Wind  
Wind Speed 5 mph (North)    
Max Wind Speed 9 mph    
Max Gust Speed -    
Visibility 10 miles    
Events      
Averages and records for this station are not official NWS values.
T = Trace of Precipitation, MM = Missing Value Source: NWS Daily Summary

Daily Weather History Graph

Daily Weather History Graph

Search for Another Location

Airport or City:

Trip Planner

Search our weather history database for the weather conditions in past years. The results will help you decide how hot, cold, wet, or windy it might be!

Date:

Astronomy

Oct. 01, 2013 Rise Set
Actual Time 8:46 AM AKDT 8:07 PM AKDT
Civil Twilight 8:02 AM AKDT 8:51 PM AKDT
Nautical Twilight 7:11 AM AKDT 9:42 PM AKDT
Astronomical Twilight 6:16 AM AKDT 10:36 PM AKDT
Moon 4:46 AM AKDT (10/1) 6:53 PM AKDT (10/1)
Length of Visible Light 12h 48m
Length of Day
11h 21m
Waning Crescent, 11% of the Moon is Illuminated
Oct 1
Waning Crescent
Oct 4
New
Oct 11
First Quarter
Oct 18
Full
Oct 26
Last Quarter

Hourly Weather History & Observations

Time (AKDT) Temp. Windchill Dew Point Humidity Pressure Visibility Wind Dir Wind Speed Gust Speed Precip Events Conditions
12:16 AM 30.2 °F 21.9 °F 19.4 °F 64% 30.04 in 10.0 mi NNW 9.2 mph - N/A   Clear
12:36 AM 28.4 °F 20.4 °F 19.4 °F 69% 30.04 in 10.0 mi NW 8.1 mph - N/A   Clear
12:56 AM 28.4 °F 23.3 °F 21.2 °F 74% 30.04 in 10.0 mi North 4.6 mph - N/A   Clear
1:16 AM 28.4 °F 23.3 °F 19.4 °F 69% 30.04 in 10.0 mi North 4.6 mph - N/A   Clear
1:36 AM 28.4 °F 22.2 °F 19.4 °F 69% 30.04 in 10.0 mi North 5.8 mph - N/A   Clear
1:56 AM 28.4 °F 22.2 °F 19.4 °F 69% 30.04 in 10.0 mi North 5.8 mph - N/A   Clear
2:16 AM 28.4 °F 22.2 °F 21.2 °F 74% 30.04 in 10.0 mi North 5.8 mph - N/A   Clear
2:36 AM 26.6 °F 19.1 °F 19.4 °F 74% 30.04 in 10.0 mi North 6.9 mph - N/A   Clear
2:56 AM 26.6 °F 20.0 °F 19.4 °F 74% 30.04 in 10.0 mi NNW 5.8 mph - N/A   Clear
3:16 AM 26.6 °F 21.2 °F 21.2 °F 80% 30.04 in 10.0 mi NNW 4.6 mph - N/A   Clear
3:36 AM 26.6 °F - 19.4 °F 74% 30.04 in 10.0 mi Calm Calm - N/A   Clear
3:56 AM 24.8 °F - 19.4 °F 80% 30.04 in 10.0 mi Calm Calm - N/A   Clear
4:16 AM 26.6 °F - 21.2 °F 80% 30.05 in 10.0 mi Calm Calm - N/A   Clear
4:36 AM 24.8 °F 20.5 °F 19.4 °F 80% 30.05 in 10.0 mi NNE 3.5 mph - N/A   Clear
4:56 AM 24.8 °F 19.1 °F 19.4 °F 80% 30.05 in 10.0 mi North 4.6 mph - N/A   Clear
5:16 AM 24.8 °F - 19.4 °F 80% 30.05 in 10.0 mi Calm Calm - N/A   Clear
5:36 AM 24.8 °F - 19.4 °F 80% 30.05 in 10.0 mi Calm Calm - N/A   Clear
5:56 AM 23.0 °F 18.4 °F 19.4 °F 86% 30.05 in 10.0 mi ESE 3.5 mph - N/A   Clear
6:16 AM 24.8 °F - 21.2 °F 86% 30.05 in 10.0 mi Calm Calm - N/A   Clear
6:36 AM 24.8 °F 19.1 °F 19.4 °F 80% 30.05 in 10.0 mi North 4.6 mph - N/A   Clear
6:56 AM 24.8 °F - 19.4 °F 80% 30.04 in 10.0 mi Calm Calm - N/A   Clear
7:16 AM 24.8 °F - 19.4 °F 80% 30.04 in 10.0 mi Calm Calm - N/A   Clear
7:36 AM 23.0 °F - 17.6 °F 80% 30.04 in 10.0 mi Calm Calm - N/A   Clear
7:56 AM 23.0 °F - 17.6 °F 80% 30.04 in 10.0 mi Calm Calm - N/A   Clear
8:16 AM 24.8 °F 20.5 °F 19.4 °F 80% 30.04 in 10.0 mi SE 3.5 mph - N/A   Clear
8:36 AM 23.0 °F 17.0 °F 17.6 °F 80% 30.04 in 10.0 mi East 4.6 mph - N/A   Clear
8:56 AM 21.2 °F - 19.4 °F 93% 30.05 in 10.0 mi Calm Calm - N/A   Clear
9:16 AM 21.2 °F 16.4 °F 17.6 °F 86% 30.04 in 10.0 mi ESE 3.5 mph - N/A   Clear
9:36 AM 23.0 °F 17.0 °F 19.4 °F 86% 30.04 in 10.0 mi ESE 4.6 mph - N/A   Clear
9:56 AM 24.8 °F 20.5 °F 19.4 °F 80% 30.04 in 10.0 mi ESE 3.5 mph - N/A   Clear
10:16 AM 24.8 °F 19.1 °F 19.4 °F 80% 30.05 in 10.0 mi ESE 4.6 mph - N/A   Clear
10:36 AM 24.8 °F - 21.2 °F 86% 30.05 in 10.0 mi Calm Calm - N/A   Clear
10:56 AM 26.6 °F - 21.2 °F 80% 30.05 in 10.0 mi Calm Calm - N/A   Clear
11:16 AM 26.6 °F - 23.0 °F 86% 30.05 in 10.0 mi Calm Calm - N/A   Clear
11:36 AM 28.4 °F - 24.8 °F 86% 30.05 in 10.0 mi Calm Calm - N/A   Clear
11:56 AM 30.2 °F 26.7 °F 23.0 °F 75% 30.05 in 10.0 mi NNW 3.5 mph - N/A   Clear
12:16 PM 30.2 °F 25.4 °F 23.0 °F 75% 30.04 in 10.0 mi NNE 4.6 mph - N/A   Clear
12:36 PM 32.0 °F 25.6 °F 24.8 °F 75% 30.04 in 10.0 mi NNE 6.9 mph - N/A   Clear
12:56 PM 33.8 °F 30.8 °F 24.8 °F 70% 30.03 in 10.0 mi NE 3.5 mph - N/A   Clear
1:16 PM 33.8 °F 28.6 °F 23.0 °F 65% 30.02 in 10.0 mi NNE 5.8 mph - N/A   Clear
1:36 PM 35.6 °F 31.7 °F 23.0 °F 60% 30.02 in 10.0 mi NNW 4.6 mph - N/A   Clear
1:56 PM 35.6 °F 29.2 °F 23.0 °F 60% 30.02 in 10.0 mi NNW 8.1 mph - N/A   Clear
2:16 PM 35.6 °F 30.7 °F 24.8 °F 65% 30.01 in 10.0 mi NNW 5.8 mph - N/A   Clear
2:36 PM 37.4 °F 32.8 °F 23.0 °F 56% 30.00 in 10.0 mi North 5.8 mph - N/A   Clear
2:56 PM 37.4 °F 32.1 °F 23.0 °F 56% 30.00 in 10.0 mi NNW 6.9 mph - N/A   Clear
3:16 PM 37.4 °F 31.4 °F 23.0 °F 56% 29.99 in 10.0 mi NNW 8.1 mph - N/A   Clear
3:36 PM 37.4 °F 32.1 °F 23.0 °F 56% 29.98 in 10.0 mi NNW 6.9 mph - N/A   Clear
3:56 PM 37.4 °F 32.8 °F 23.0 °F 56% 29.98 in 10.0 mi North 5.8 mph - N/A   Clear
4:16 PM 37.4 °F 31.4 °F 23.0 °F 56% 29.97 in 10.0 mi NNW 8.1 mph - N/A   Clear
4:36 PM 39.2 °F 33.6 °F 23.0 °F 52% 29.96 in 10.0 mi NNW 8.1 mph - N/A   Clear
4:56 PM 39.2 °F 34.2 °F 21.2 °F 49% 29.96 in 10.0 mi NNW 6.9 mph - N/A   Clear
5:16 PM 39.2 °F 33.0 °F 23.0 °F 52% 29.96 in 10.0 mi NNW 9.2 mph - N/A   Clear
5:36 PM 39.2 °F 33.6 °F 23.0 °F 52% 29.95 in 10.0 mi North 8.1 mph - N/A   Clear
5:56 PM 37.4 °F 32.1 °F 21.2 °F 52% 29.95 in 10.0 mi North 6.9 mph - N/A   Clear
6:16 PM 37.4 °F 32.1 °F 23.0 °F 56% 29.95 in 10.0 mi North 6.9 mph - N/A   Clear
6:36 PM 37.4 °F 31.4 °F 21.2 °F 52% 29.94 in 10.0 mi North 8.1 mph - N/A   Clear
6:56 PM 37.4 °F 31.4 °F 21.2 °F 52% 29.94 in 10.0 mi North 8.1 mph - N/A   Clear
7:16 PM 37.4 °F 31.4 °F 21.2 °F 52% 29.93 in 10.0 mi North 8.1 mph - N/A   Clear
7:36 PM 35.6 °F 30.7 °F 21.2 °F 56% 29.93 in 10.0 mi North 5.8 mph - N/A   Clear
7:56 PM 35.6 °F 29.2 °F 21.2 °F 56% 29.93 in 10.0 mi North 8.1 mph - N/A   Clear
8:16 PM 35.6 °F 30.7 °F 21.2 °F 56% 29.93 in 10.0 mi North 5.8 mph - N/A   Clear
8:36 PM 33.8 °F 28.6 °F 21.2 °F 60% 29.93 in 10.0 mi North 5.8 mph - N/A   Clear
8:56 PM 33.8 °F 27.7 °F 21.2 °F 60% 29.93 in 10.0 mi North 6.9 mph - N/A   Clear
9:16 PM 33.8 °F 26.4 °F 21.2 °F 60% 29.92 in 10.0 mi North 9.2 mph - N/A   Clear
9:36 PM 33.8 °F 29.6 °F 21.2 °F 60% 29.92 in 10.0 mi North 4.6 mph - N/A   Clear
9:56 PM 33.8 °F 27.7 °F 21.2 °F 60% 29.92 in 10.0 mi North 6.9 mph - N/A   Clear
10:16 PM 33.8 °F 29.6 °F 21.2 °F 60% 29.91 in 10.0 mi North 4.6 mph - N/A   Clear
10:36 PM 33.8 °F 29.6 °F 21.2 °F 60% 29.91 in 10.0 mi NNE 4.6 mph - N/A   Clear
10:56 PM 33.8 °F 28.6 °F 21.2 °F 60% 29.92 in 10.0 mi NNE 5.8 mph - N/A   Clear
11:16 PM 33.8 °F 30.8 °F 21.2 °F 60% 29.92 in 10.0 mi NNE 3.5 mph - N/A   Clear
11:36 PM 33.8 °F 28.6 °F 21.2 °F 60% 29.92 in 10.0 mi North 5.8 mph - N/A   Clear
11:56 PM 33.8 °F 29.6 °F 21.2 °F 60% 29.92 in 10.0 mi North 4.6 mph - N/A   Clear